This is the latest recevied weather packets stored in our database for station/object W0RMT-13. If no packets are shown the sender has not sent any weather packets the latest 10 day(s).
| Time | Temp. | Humidity | Pressure | Rain* | Wind** | Luminosity | Snow |
|---|---|---|---|---|---|---|---|
| 1777575421 | 7.22° C | 61% | 1019.8 hPa | 0 mm | - | 193 W/m² | - |
| 1777574768 | 7.22° C | 60% | 1019.8 hPa | 0 mm | - | 104 W/m² | - |
| 1777574177 | 7.78° C | 60% | 1019.8 hPa | 0 mm | - | 104 W/m² | - |
| 1777573498 | 7.78° C | 61% | 1019.8 hPa | 0 mm | - | 93 W/m² | - |
| 1777572833 | 8.33° C | 56% | 1020.2 hPa | 0 mm | - | 91 W/m² | - |
| 1777572148 | 8.33° C | 56% | 1020.2 hPa | 0 mm | - | 152 W/m² | - |
| 1777571494 | 8.33° C | 54% | 1020.2 hPa | 0 mm | - | 172 W/m² | - |
| 1777570828 | 8.33° C | 56% | 1020.2 hPa | 0 mm | - | 203 W/m² | - |
| 1777570114 | 8.33° C | 54% | 1020.5 hPa | 0 mm | - | 177 W/m² | - |
| 1777569444 | 8.89° C | 55% | 1020.5 hPa | 0 mm | - | 174 W/m² | - |
| 1777568788 | 8.33° C | 55% | 1020.2 hPa | 0 mm | - | 320 W/m² | - |
| 1777568145 | 7.78° C | 54% | 1020.5 hPa | 0 mm | - | 283 W/m² | - |
| 1777567498 | 7.22° C | 57% | 1020.5 hPa | 0 mm | - | 265 W/m² | - |
| 1777566862 | 7.22° C | 59% | 1020.5 hPa | 0 mm | - | 307 W/m² | - |
| 1777566272 | 6.67° C | 60% | 1020.5 hPa | 0 mm | - | 210 W/m² | - |
| 1777565593 | 6.67° C | 62% | 1020.5 hPa | 0 mm | - | 207 W/m² | - |
| 1777564917 | 6.67° C | 62% | 1020.5 hPa | 0 mm | - | 178 W/m² | - |
| 1777564301 | 6.67° C | 61% | 1020.5 hPa | 0 mm | - | 137 W/m² | - |
| 1777563673 | 6.11° C | 62% | 1020.5 hPa | 0 mm | - | 134 W/m² | - |
| 1777563032 | 6.11° C | 61% | 1020.5 hPa | 0 mm | - | 115 W/m² | - |
| 1777562423 | 5.56° C | 62% | 1020.5 hPa | 0 mm | - | 125 W/m² | - |
| 1777561771 | 5.56° C | 63% | 1020.5 hPa | 0 mm | - | 117 W/m² | - |
| 1777561065 | 5.56° C | 64% | 1020.5 hPa | 0 mm | - | 86 W/m² | - |
| 1777560425 | 5.56° C | 63% | 1020.5 hPa | 0 mm | - | 54 W/m² | - |
| 1777559868 | 5.56° C | 64% | 1020.5 hPa | 0 mm | - | 54 W/m² | - |
* Rain latest hour (hover to see other rain measurements)
** Current wind speed in m/s (hover to see current wind gust speed)